CORVUS BC3 (43118 NORAD) Tracking and Keplerian Element Data

This shows tracking and keplerian element data for the satellite.

Feedback or suggestion? Click here.




ElementValue
Catalog43118
NameCORVUS BC3
Epoch Orbit4724
Epoch Day322.86794871
Epoch Year2018
RAAN25.6246
Inclination97.5157
Eccentricity0.0008957
Argument of Perigee274.6953
Mean Anonmoly85.326
Mean Motion15.22501609
Decay Rate8.36E-06
L11 43118U 18004H 18322.86794871 .00000836 00000-0 39164-4 0 9990
L22 43118 97.5157 25.6246 0008957 274.6953 85.3260 15.22501609 47245

Live tracking and technical data element details for CORVUS BC3 (NORAD 43118). CORVUS BC3 can be tracked NOW for your location showing map with azimuth and elevation plus other details from your city location.

Track the satellite on the map from your city or location and see movement details for azimuth, elevation, latitude, longitude, range, height, and movement on the map or in text.







IsCatalogInMostPopularTable: catalog: 43118, numindb: 109
Update: records affected: 1



GetName: 43118 CORVUS BC3

Hit Count: updated at: Tue, 20 Nov 2018 00:20:02 GMT